Location: Byszew
(52.1813°N, 19.2693°E)
Time: 08:06:31
(UTC+00:00)

AIST 2D - Pass Details

Date: 27 June 2022
Orbit: 433 x 444 km, 97.0° (Epoch: 07 August)

Event Time Altitude Azimuth Distance (km) Brightness Sun altitude
Rises 20:09:02 0° 17° (NNE) 2,427 ? -7.1°
Reaches altitude 10° 20:11:06 10° 23° (NNE) 1,554 ? -7.3°
Maximum altitude 20:14:21 49° 99° (E) 572 ? -7.6°
Drops below altitude 10° 20:17:34 10° 176° (S) 1,542 ? -7.8°
Enters shadow 20:18:06 - 178° (S) 1,768 ? -7.9°
